Regional Weather Roundup
Issued by NWS

Home | Current Version | Previous Version | Graphics & Text | Print | Product List | Glossary On
Versions: 1 2 3 4 5 6 7 8 9 10 11 12 13 14 15 16 17 18 19 20 21 22 23 24 25 26 27 28 29 30 31 32 33 34 35 36 37 38 39 40 41 42 43 44 45 46 47 48 49 50
000
ASUS43 KLMK 260410
RWRKY
KENTUCKY REGIONAL WEATHER ROUNDUP
NATIONAL WEATHER SERVICE LOUISVILLE KY
1200 AM EDT SAT MAY 26 2018

NOTE "FAIR" INDICATES FEW OR NO CLOUDS BELOW 12,000 FEET
WITH NO SIGNIFICANT WEATHER AND/OR OBSTRUCTIONS TO VISIBILITY.

KYZ001>023-026-027-061>063-070>075-260500-
WESTERN AND SOUTH CENTRAL KENTUCKY

CITY           SKY/WX    TMP DP  RH WIND       PRES   REMARKS
PADUCAH        FAIR      71  68  90 CALM      29.86S
HENDERSON      NOT AVBL
OWENSBORO      FAIR      73  68  84 SW5       29.89S
HOPKINSVILLE   FAIR      72  70  96 SW7       29.90S
BOWLING GREEN  FAIR      77  70  79 SW6       29.90R
GLASGOW        FAIR      73  66  80 CALM      29.91S
$$

KYZ024-025-028>034-038-045-046-053-260500-
NORTH CENTRAL KENTUCKY

CITY           SKY/WX    TMP DP  RH WIND       PRES   REMARKS
LOUISVILLE/SDF MOCLDY    79  61  53 CALM      29.87S
LOUISVILLE/LOU FAIR      73  63  70 CALM      29.88S
FORT KNOX      MOCLDY    71  65  80 W5        29.90R
$$

KYZ035>037-039>044-047>052-055>060-089>105-260500-
NORTHEAST KENTUCKY

CITY           SKY/WX    TMP DP  RH WIND       PRES   REMARKS
LEXINGTON      FAIR      73  64  73 S6        29.91F
COVINGTON      MOCLDY    69  61  75 S5        29.88S
FRANKFORT      FAIR      70  63  78 CALM      29.88F
$$

KYZ054-064>069-076>088-106>120-260500-
SOUTHEAST KENTUCKY

CITY           SKY/WX    TMP DP  RH WIND       PRES   REMARKS
JACKSON        FAIR      73  67  81 CALM      29.94F
LONDON         FAIR      72  65  78 S3        29.94F
SOMERSET       FAIR      70  66  88 MISG      29.93F
MIDDLESBORO    FAIR      71  68  92 CALM      29.97F
MONTICELLO     FAIR      71  66  84 NE7       29.94F
$$





USA.gov is the U.S. government's official web portal to all federal, state and local government web resources and services.